Temperature
23 22 22 22 22 21 21 21 20 20 20 20 20 19 19 19 19 19 19 19 19 19 19 19 19 18 18 18 18 18 18 18 18 18 18 18 18 18 18 18 18 18 18
23 22 22 22 22 21 21 21 20 20 20 20 20 20 19 19 19 19 19 19 19 19 19 19 19 18 18 18 18 18 18 18 18 18 18 18 18 18 18 18 18 18 18
23 23 22 22 22 22 21 21 21 20 20 20 20 20 19 19 19 19 19 19 18 18 18 18 18 18 18 18 18 18 18 18 18 18 18 18 18 18 18 18 18 18 18
23 23 23 22 22 22 21 21 21 21 20 20 20 20 20 19 19 19 19 18 18 18 18 18 18 18 18 18 18 18 18 18 18 18 18 18 17 17 17 18 18 18 17
23 23 23 23 22 22 22 21 21 21 20 20 20 20 20 19 19 19 19 18 18 18 18 18 18 18 18 18 18 18 18 17 18 18 18 17 17 17 17 17 17 17 17
23 23 23 23 22 22 22 22 21 21 20 20 20 20 20 19 19 19 19 19 18 18 18 18 18 18 18 18 18 18 17 17 17 17 17 17 17 17 17 17 17 17 17
23 23 23 22 22 22 22 22 21 21 20 20 20 20 20 19 19 19 19 18 18 18 18 18 18 18 18 18 18 17 17 17 17 17 17 17 17 17 17 17 17 17 17
23 23 23 23 22 22 22 21 21 21 21 20 20 20 19 19 19 19 18 18 18 18 18 18 18 18 18 18 18 17 17 17 17 17 17 17 17 17 17 17 17 16 16
23 23 23 23 22 22 22 22 21 21 21 21 20 20 19 19 19 19 18 18 18 18 18 18 18 18 18 17 17 17 17 17 17 17 17 17 17 17 16 16 16 16 16
23 23 23 23 22 22 22 22 21 21 21 21 20 20 19 19 19 19 18 18 18 18 18 18 18 18 17 17 17 17 17 17 17 17 17 17 16 16 16 16 16 16 15
23 23 23 23 22 22 22 21 21 21 21 20 20 20 19 19 19 18 18 18 18 18 18 18 18 17 17 17 17 17 17 17 16 16 16 16 16 16 16 16 15 15 15
23 23 23 23 22 22 22 21 21 21 20 20 20 19 19 19 18 18 18 18 18 18 18 17 17 17 17 17 17 16 16 16 16 16 16 16 16 16 16 15 15 15 15
23 23 22 22 22 22 21 21 21 21 20 20 20 19 19 19 18 18 18 18 18 17 17 17 17 17 17 16 16 16 16 16 16 16 16 15 15 15 15 15 15 15 15
22 22 22 22 22 21 21 21 21 20 20 20 19 19 19 19 18 18 18 18 17 17 17 17 17 17 16 16 16 16 16 16 16 15 15 15 15 15 15 15 15 14 14
22 22 21 21 21 21 21 21 20 20 20 19 19 19 19 18 18 18 18 17 17 17 17 16 16 16 16 16 16 16 15 15 15 15 15 15 14 14 14 14 14 14 14
21 21 21 21 21 20 20 20 20 20 19 19 19 18 18 18 18 17 17 17 17 17 16 16 16 16 16 16 15 15 15 15 15 15 14 14 14 14 14 14 14 14 13
21 21 21 21 20 20 20 20 19 19 19 19 18 18 18 18 17 17 17 17 17 16 16 16 16 16 16 15 15 15 15 14 14 14 14 14 14 14 14 14 14 13 13
20 20 20 20 20 20 19 19 19 19 18 18 18 18 17 17 17 17 17 16 16 16 16 16 15 15 15 15 15 15 14 14 14 14 14 14 14 14 14 14 13 13 13
20 20 20 20 19 19 19 19 19 18 18 18 18 17 17 17 17 17 17 16 16 16 16 15 15 15 15 15 15 14 14 14 14 14 14 14 14 14 13 13 13 13 13
20 20 19 19 19 18 18 18 18 18 18 17 17 17 17 17 17 16 16 16 16 15 15 15 15 15 15 14 14 14 14 14 14 14 14 14 13 13 13 13 13 13 13
19 19 19 18 18 18 18 18 17 17 17 17 17 17 17 16 16 16 16 16 15 15 15 15 14 14 14 14 14 14 14 14 13 13 13 13 13 13 13 13 13 13 13
19 19 18 18 18 17 17 17 17 16 16 16 16 16 16 16 16 16 15 15 15 15 15 14 14 14 14 14 14 14 13 13 13 13 13 13 13 13 13 12 12 12 12
18 18 18 17 17 17 17 16 16 16 16 16 16 15 15 15 15 15 15 15 14 14 14 14 14 14 14 14 14 13 13 13 13 13 13 12 12 12 12 12 12 12 12
17 17 17 17 16 16 16 16 16 15 15 15 15 15 15 15 15 14 14 14 14 14 14 14 13 13 13 13 13 13 13 13 13 12 12 12 12 12 12 12 12 12 12
17 17 16 16 16 16 15 15 15 15 15 15 14 14 14 14 14 14 14 14 14 13 13 13 13 13 13 13 13 13 13 13 12 12 12 12 12 12 12 12 12 12 12
16 16 16 16 15 15 15 15 15 14 14 14 14 14 14 14 14 13 13 13 13 13 13 13 13 13 13 13 13 13 12 12 12 12 12 12 12 12 12 12 12 11 11
Wind_Speed
7 8 9 9 8 6 6 5 4 3 2 2 2 1 0 0 0 0 1 2 2 2 2 2 1 2 2 1 1 1 1 1 1 2 3 3 2 0 0 1 1 2 4
7 8 8 8 7 7 6 5 5 4 3 2 2 2 1 1 1 0 0 1 2 2 2 2 2 1 1 1 1 1 1 1 1 1 1 3 4 3 1 0 1 1 2
11 9 8 8 8 7 7 6 5 4 3 2 2 2 2 2 2 2 1 1 1 1 1 1 2 1 2 1 1 1 2 0 1 1 2 1 2 2 3 2 1 1 1
9 9 9 8 9 8 7 6 5 4 3 3 3 4 3 1 1 1 1 1 1 1 2 2 2 1 1 1 1 1 1 1 1 1 1 2 3 2 2 3 2 2 2
10 10 10 10 9 8 8 6 5 4 4 4 4 4 2 1 0 1 2 2 2 1 1 1 1 1 1 1 1 0 0 1 1 1 1 0 0 1 2 2 3 3 2
8 8 8 8 7 7 7 6 6 4 4 4 4 4 4 2 2 1 1 1 1 1 2 1 1 0 0 1 1 0 0 0 0 1 1 1 1 1 1 2 2 2 3
7 8 8 8 8 8 7 7 7 5 5 5 4 4 4 4 3 2 2 1 1 1 2 1 1 1 0 0 1 0 1 0 0 1 1 1 2 2 2 2 2 2 2
7 8 9 9 9 9 8 7 7 6 6 6 5 4 4 3 2 2 2 2 1 1 0 0 0 1 1 1 1 0 1 0 1 1 1 1 1 1 1 2 1 1 2
8 8 8 9 8 8 8 8 8 7 7 7 6 4 4 3 3 2 2 2 1 1 0 1 0 1 1 1 1 1 1 1 1 1 1 1 1 0 0 1 2 2 1
7 7 8 7 7 8 7 6 7 8 7 7 6 6 5 4 4 3 3 2 2 1 1 1 1 1 1 1 1 1 1 1 1 1 1 1 1 1 1 0 0 1 3
7 7 6 6 6 6 6 6 6 5 5 6 5 5 4 4 4 3 3 2 2 2 1 1 1 0 0 1 0 0 0 0 1 1 1 2 1 1 1 0 0 0 1
6 6 6 4 4 5 6 6 5 5 5 5 5 5 4 4 4 4 3 3 2 2 2 2 1 1 1 0 1 1 1 0 1 1 2 2 1 1 1 1 1 1 1
6 5 5 4 3 4 5 5 5 5 4 4 4 4 4 4 4 4 4 3 3 2 2 2 1 1 0 1 1 1 1 1 1 1 1 2 1 2 1 1 1 1 1
6 6 5 3 3 3 3 3 3 4 5 5 5 4 4 5 5 4 3 3 3 2 2 1 1 1 1 1 1 0 0 1 1 1 1 2 2 2 2 1 1 1 1
6 6 5 4 3 3 2 2 2 2 4 4 4 4 3 3 3 3 3 3 2 2 2 1 1 1 1 1 1 1 0 0 1 2 2 2 2 2 2 1 1 1 1
5 5 4 4 3 3 2 2 2 2 3 4 3 3 2 3 3 3 3 2 2 1 2 1 1 1 1 0 1 2 0 0 1 2 3 3 3 3 3 2 1 1 2
5 5 4 4 3 3 3 3 2 2 2 2 2 2 2 2 2 2 2 2 2 2 2 1 1 1 2 1 1 2 2 2 2 3 3 3 3 3 3 3 3 3 4
6 5 4 3 3 2 2 2 2 2 2 1 1 1 1 1 1 2 2 2 2 2 2 2 2 2 2 1 1 2 2 2 3 3 3 3 3 3 2 2 2 3 4
6 5 4 3 3 3 3 4 3 3 2 1 0 1 1 1 1 2 2 2 2 2 2 2 2 2 3 3 3 2 1 2 3 3 3 2 3 4 2 1 3 4 6
5 5 4 4 4 3 3 4 3 3 2 1 1 0 1 2 2 3 2 2 2 2 2 2 2 3 3 4 3 3 2 2 3 3 3 3 3 4 3 2 2 4 6
5 5 5 4 3 3 4 4 2 1 1 1 1 0 1 2 2 2 1 1 1 1 1 2 2 2 3 3 2 2 2 3 3 3 3 4 5 5 5 3 3 6 5
4 5 4 3 2 3 4 3 1 1 1 1 1 1 1 1 1 1 1 1 1 1 1 1 2 3 3 2 2 2 2 3 2 3 3 4 5 5 5 4 5 6 3
4 4 4 3 2 2 3 2 1 1 2 2 2 1 1 1 0 1 2 1 1 1 1 1 2 3 3 3 3 3 3 3 3 3 4 5 5 5 4 5 6 4 1
3 3 4 3 1 1 2 1 0 1 2 2 2 1 1 1 1 0 1 1 1 2 2 2 2 3 2 2 2 2 2 2 2 3 4 5 4 3 4 4 4 2 2
2 3 3 2 0 1 1 1 1 1 1 1 1 1 0 0 1 0 1 2 2 3 3 3 3 3 3 5 4 2 1 1 2 1 2 2 2 3 3 3 3 2 1
3 3 3 2 1 1 1 2 2 0 1 1 1 1 1 0 0 0 1 2 2 4 4 5 4 3 5 4 3 2 3 2 1 2 0 2 2 2 3 3 3 2 2
Wind_Direction
172 161 156 151 143 141 138 138 135 138 123 116 119 114 137 107 52 189 162 154 155 154 131 118 89 85 94 91 58 75 52 14 39 46 6 355 0 33 245 207 201 205 200
163 165 159 153 152 155 156 156 159 161 158 154 154 155 161 179 172 343 46 149 157 171 152 134 131 125 109 59 54 79 54 353 59 101 54 357 351 347 325 282 209 225 197
171 171 167 163 160 161 165 166 170 163 167 162 123 98 68 44 38 18 359 354 177 181 157 138 133 136 135 142 166 139 131 248 303 146 140 142 252 306 320 305 285 265 233
168 172 170 168 169 172 168 164 167 163 163 150 136 133 131 144 214 236 337 4 69 131 118 120 121 129 134 165 222 169 165 153 278 307 238 186 179 180 303 318 304 269 240
170 175 181 179 175 171 169 168 163 165 162 152 149 140 135 151 149 62 43 29 19 31 68 119 101 121 155 186 215 127 124 157 193 239 268 286 65 139 168 279 306 314 281
171 175 181 173 171 169 169 167 163 173 173 165 155 147 152 151 122 92 84 52 19 359 348 29 32 83 157 169 193 190 162 194 226 246 200 179 186 220 179 227 270 286 288
176 176 173 172 171 171 175 173 169 180 184 177 177 172 171 169 166 169 159 146 122 358 316 360 15 14 234 124 91 118 286 283 283 258 237 202 212 198 177 186 253 277 290
179 178 178 176 178 179 179 179 180 189 190 186 189 186 172 173 172 170 161 163 173 204 282 31 9 351 4 54 72 94 278 331 285 289 273 262 264 210 172 177 179 312 317
178 175 175 174 179 180 184 186 187 193 194 191 189 186 177 175 178 173 161 165 175 168 125 100 32 349 23 38 59 52 336 352 336 312 316 312 300 335 220 164 158 166 253
179 170 171 177 183 181 182 183 188 195 193 191 188 184 185 181 174 170 170 172 181 164 137 128 72 17 16 27 52 33 347 27 356 13 25 349 326 345 3 84 116 159 183
156 159 173 181 181 173 172 179 187 185 190 191 188 182 182 179 170 175 186 177 171 172 168 167 177 228 32 56 64 325 337 23 348 347 6 337 346 358 331 350 350 178 167
137 146 161 161 159 173 176 182 187 188 190 187 181 180 178 174 178 187 192 181 180 187 181 174 183 203 234 248 212 273 303 293 328 329 341 323 343 352 322 351 314 277 226
120 110 101 112 142 161 171 177 182 186 182 172 169 177 181 181 188 194 194 190 190 195 188 165 170 204 253 277 244 256 311 298 283 302 306 304 321 316 317 326 314 294 311
115 108 97 84 113 132 147 163 178 179 174 170 173 181 191 194 193 192 189 190 186 186 196 175 184 201 232 249 235 176 356 314 299 301 295 293 282 269 269 284 284 291 314
106 112 111 98 99 101 109 124 143 161 165 162 172 192 193 186 178 171 173 175 178 181 165 157 200 251 245 268 200 196 143 333 327 321 315 306 302 279 261 263 261 274 275
117 112 106 101 99 98 95 94 93 106 127 139 164 178 167 162 169 175 178 177 176 167 137 155 185 242 288 274 162 161 166 279 282 298 305 301 297 292 284 284 272 239 241
134 129 125 119 119 114 112 111 108 98 104 126 142 149 155 162 179 178 167 174 177 165 158 183 196 241 278 261 193 177 200 227 250 265 286 301 312 299 283 292 302 295 281
143 146 136 126 119 97 87 92 85 87 87 93 131 139 140 162 174 165 179 192 184 175 181 189 207 231 282 270 214 200 216 234 251 252 253 265 287 302 283 287 309 300 286
143 145 135 123 97 82 86 85 67 59 64 53 178 189 168 160 163 171 183 184 171 192 200 210 225 243 278 274 239 219 219 247 265 265 267 254 266 296 287 279 297 304 301
112 115 105 93 86 75 79 78 63 54 34 342 306 255 181 178 188 190 189 187 183 204 211 237 248 253 276 282 251 228 207 242 273 291 292 278 275 290 287 251 266 289 293
105 102 101 102 111 105 96 87 68 35 318 338 13 344 232 206 192 183 179 168 177 187 209 244 269 271 278 293 266 219 210 229 260 281 288 286 292 295 296 278 255 265 280
98 101 101 83 68 92 96 82 37 316 7 35 29 345 322 248 179 157 173 166 175 181 229 254 282 289 288 272 252 220 223 219 225 258 272 282 294 300 306 299 289 294 314
107 103 105 89 62 74 100 95 327 346 46 35 10 347 352 351 102 160 180 186 198 210 244 249 265 287 297 293 273 255 257 240 229 261 279 293 296 299 303 303 305 312 315
102 101 100 90 53 33 66 102 17 45 68 37 348 337 11 349 350 281 189 191 221 234 251 250 255 275 292 294 298 291 285 290 291 297 309 308 300 301 301 311 313 294 261
87 92 103 106 31 20 45 44 24 67 60 9 334 323 299 254 323 305 250 221 230 220 211 226 227 236 261 261 247 221 241 243 260 313 352 356 348 340 329 319 314 310 308
95 87 78 72 39 22 355 341 336 6 108 3 329 314 282 284 316 44 347 341 281 279 241 229 219 242 249 251 245 242 236 229 171 112 328 293 284 279 282 292 300 294 278
Height
1519 1520 1520 1521 1521 1522 1522 1522 1522 1523 1523 1523 1522 1522 1522 1523 1522 1522 1522 1521 1521 1521 1520 1519 1519 1519 1518 1518 1518 1518 1518 1517 1517 1517 1517 1516 1516 1516 1515 1515 1515 1514 1514
1518 1519 1520 1520 1521 1521 1522 1522 1522 1522 1523 1523 1523 1523 1523 1523 1523 1523 1522 1522 1522 1521 1521 1520 1520 1519 1519 1519 1518 1518 1517 1517 1517 1517 1517 1516 1517 1516 1515 1515 1515 1514 1513
1515 1517 1519 1519 1520 1521 1522 1522 1523 1523 1523 1523 1523 1523 1523 1523 1523 1523 1522 1522 1522 1521 1521 1520 1520 1519 1519 1519 1518 1518 1517 1517 1517 1517 1517 1517 1516 1516 1515 1514 1514 1513 1513
1514 1516 1518 1519 1519 1521 1521 1522 1522 1523 1523 1523 1523 1523 1522 1522 1522 1522 1522 1522 1522 1522 1521 1520 1520 1519 1519 1518 1518 1518 1517 1517 1517 1517 1516 1516 1515 1515 1514 1513 1513 1512 1511
1513 1514 1517 1518 1519 1520 1521 1521 1522 1522 1523 1523 1523 1522 1522 1522 1522 1522 1522 1522 1522 1521 1521 1520 1520 1519 1519 1518 1518 1517 1517 1516 1516 1516 1515 1515 1514 1513 1513 1511 1511 1510 1510
1511 1513 1516 1518 1519 1520 1520 1520 1521 1521 1522 1522 1522 1522 1522 1522 1522 1522 1521 1521 1521 1520 1520 1519 1519 1518 1518 1517 1517 1517 1516 1516 1515 1515 1514 1514 1513 1512 1511 1510 1509 1508 1508
1509 1511 1514 1516 1517 1518 1519 1519 1520 1520 1521 1521 1521 1521 1521 1521 1520 1520 1520 1520 1520 1519 1519 1518 1518 1517 1517 1517 1516 1516 1515 1515 1514 1513 1513 1512 1511 1511 1510 1509 1508 1506 1506
1507 1509 1511 1513 1515 1516 1517 1518 1518 1519 1519 1520 1520 1520 1520 1520 1520 1520 1520 1520 1519 1519 1518 1518 1517 1517 1516 1516 1515 1515 1514 1513 1513 1512 1511 1510 1510 1509 1508 1507 1506 1505 1504
1506 1507 1509 1511 1512 1514 1515 1516 1516 1517 1518 1518 1518 1519 1519 1518 1519 1519 1519 1519 1518 1518 1517 1517 1516 1516 1515 1515 1514 1513 1512 1512 1511 1510 1509 1509 1508 1507 1506 1505 1505 1504 1502
1505 1506 1508 1509 1511 1512 1514 1515 1515 1515 1516 1516 1517 1517 1517 1517 1517 1517 1517 1517 1517 1516 1515 1515 1515 1514 1514 1513 1512 1512 1511 1510 1509 1509 1508 1507 1506 1505 1504 1504 1503 1502 1501
1503 1505 1507 1509 1510 1511 1512 1513 1513 1514 1514 1515 1515 1515 1515 1516 1516 1515 1515 1515 1514 1514 1514 1514 1513 1512 1512 1511 1511 1510 1509 1508 1507 1506 1506 1505 1504 1503 1502 1502 1501 1500 1499
1504 1505 1506 1508 1509 1510 1511 1511 1512 1512 1513 1513 1514 1514 1514 1514 1514 1513 1513 1514 1513 1513 1512 1512 1511 1511 1510 1510 1509 1508 1507 1506 1505 1504 1503 1503 1502 1501 1500 1499 1498 1497 1496
1504 1505 1506 1507 1508 1509 1510 1510 1511 1511 1511 1511 1512 1512 1512 1512 1511 1511 1512 1512 1511 1511 1510 1510 1509 1509 1508 1507 1507 1506 1505 1504 1503 1502 1501 1500 1500 1498 1498 1497 1495 1495 1494
1503 1504 1506 1507 1507 1508 1509 1509 1509 1510 1510 1510 1510 1509 1510 1510 1510 1510 1510 1510 1510 1509 1509 1508 1508 1507 1506 1505 1505 1504 1503 1502 1501 1500 1499 1498 1498 1497 1496 1494 1493 1492 1491
1503 1504 1505 1506 1507 1508 1508 1508 1508 1508 1508 1508 1508 1508 1508 1508 1508 1508 1508 1508 1508 1508 1507 1506 1506 1505 1504 1503 1502 1502 1501 1500 1499 1498 1497 1496 1496 1494 1493 1492 1491 1490 1489
1504 1504 1505 1506 1507 1507 1508 1507 1507 1507 1507 1507 1506 1506 1506 1506 1506 1506 1506 1506 1506 1505 1505 1504 1504 1503 1502 1502 1501 1500 1499 1498 1497 1496 1495 1494 1493 1492 1491 1490 1489 1488 1487
1504 1504 1505 1505 1506 1507 1507 1507 1506 1506 1506 1505 1505 1505 1504 1504 1504 1504 1504 1504 1503 1503 1503 1503 1502 1501 1500 1500 1499 1498 1497 1496 1495 1494 1493 1492 1491 1490 1489 1488 1487 1486 1485
1503 1504 1505 1505 1506 1506 1506 1506 1506 1505 1504 1504 1503 1503 1503 1502 1502 1502 1501 1501 1501 1501 1501 1500 1500 1499 1498 1498 1497 1496 1495 1494 1493 1492 1491 1490 1489 1488 1487 1485 1484 1483 1481
1502 1503 1504 1505 1505 1505 1505 1504 1504 1503 1503 1502 1501 1501 1501 1500 1500 1499 1499 1499 1499 1499 1498 1498 1497 1496 1495 1495 1494 1494 1492 1491 1490 1490 1489 1488 1486 1486 1484 1483 1481 1479 1478
1502 1503 1504 1504 1504 1504 1503 1503 1502 1501 1501 1500 1499 1499 1499 1498 1498 1497 1497 1497 1497 1496 1496 1495 1495 1494 1493 1493 1492 1491 1490 1488 1487 1487 1486 1485 1484 1483 1482 1480 1478 1476 1475
1502 1503 1503 1503 1503 1503 1502 1501 1500 1500 1499 1498 1498 1497 1497 1496 1495 1495 1495 1495 1494 1493 1493 1492 1492 1491 1490 1489 1489 1488 1487 1486 1484 1483 1482 1482 1481 1480 1479 1477 1475 1474 1472
1502 1502 1502 1502 1502 1502 1501 1500 1499 1498 1498 1497 1496 1495 1494 1493 1493 1493 1492 1492 1491 1490 1490 1489 1488 1488 1487 1486 1486 1485 1484 1483 1482 1480 1479 1479 1478 1477 1476 1474 1473 1471 1469
1501 1501 1501 1501 1501 1501 1500 1498 1498 1497 1496 1495 1493 1492 1491 1491 1490 1490 1489 1489 1489 1488 1487 1486 1485 1485 1484 1484 1483 1482 1481 1480 1479 1478 1477 1476 1475 1474 1472 1471 1470 1468 1466
1501 1501 1500 1500 1499 1499 1498 1497 1496 1495 1494 1492 1491 1490 1489 1488 1488 1487 1487 1486 1486 1485 1484 1483 1483 1482 1481 1481 1480 1479 1478 1477 1476 1475 1474 1473 1472 1471 1469 1468 1466 1465 1463
1500 1500 1499 1499 1498 1497 1496 1495 1495 1493 1492 1490 1489 1488 1486 1485 1485 1484 1484 1483 1483 1483 1482 1481 1480 1479 1478 1478 1477 1476 1475 1474 1473 1472 1470 1469 1468 1467 1466 1464 1463 1462 1460
1499 1499 1498 1497 1496 1495 1495 1494 1493 1492 1490 1488 1487 1485 1484 1483 1482 1481 1481 1480 1480 1480 1479 1478 1477 1477 1476 1476 1475 1473 1472 1471 1470 1468 1467 1465 1464 1463 1462 1461 1459 1458 1457